Regional Weather Roundup
Issued by NWS

Home | Current Version | Previous Version | Text Only | Print | Product List | Glossary Off
Versions: 1 2 3 4 5 6 7 8 9 10 11 12 13 14 15 16 17 18 19 20 21 22 23 24 25 26 27 28 29 30 31 32 33 34 35 36 37 38 39 40 41 42 43 44 45 46 47 48 49 50

000
ASUS43 KMKX 252011
RWRWI

WISCONSIN REGIONAL WEATHER ROUNDUP
NATIONAL WEATHER SERVICE MILWAUKEE/SULLIVAN WI
300 PM CDT SUN JUN 25 2017

NOTE: "FAIR" INDICATES FEW OR NO CLOUDS BELOW 12,000 FEET WITH NO
SIGNIFICANT WEATHER AND/OR OBSTRUCTIONS TO VISIBILITY.

WIZ001-002-006>008-014>016-023>028-252100-
NORTHWEST WISCONSIN

CITY           SKY/WX    TMP DP  RH WIND       PRES   REMARKS
SUPERIOR ARPT  NOT AVBL
ASHLAND        LGT RAIN  53  50  89 W14G20    30.07R
HAYWARD        CLOUDY    57  47  69 N8G21     30.08F
SIREN          MOSUNNY   63  45  51 N14G21    30.10F
CUMBERLAND     CLOUDY    57  46  67 NW18G24   30.10R
RICE LAKE      CLOUDY    58  49  71 NW9G22    30.11R
CHETEK         CLOUDY    60  53  78 N10G20    30.09S
LADYSMITH      CLOUDY    56  52  85 NW8       30.09S
EAU CLAIRE     CLOUDY    62  56  80 W12       30.08S
MENOMONIE      LGT RAIN  59  53  79 NW10G20   30.11R
NEW RICHMOND   PTSUNNY   65  47  52 NW17      30.12F
OSCEOLA        PTSUNNY   65  44  47 NW10G18   30.15S
$$

WIZ003>005-009-010-017-018-252100-
NORTH CENTRAL WISCONSIN

CITY           SKY/WX    TMP DP  RH WIND       PRES   REMARKS
MANITOWISH WTR TSTM      53  53 100 W12       30.02R
ARBOR VITAE    CLOUDY    55  52  90 W12       30.02R
WOODRUFF       CLOUDY    55  52  90 W12       30.02R
RHINELANDER    LGT RAIN  55  53  93 W15       30.03R
EAGLE RIVER    LGT RAIN  56  51  80 W12       30.00R
LAND O LAKES   TSTM      55  52  91 NW3       30.00F
PHILLIPS       CLOUDY    53  52  99 NW7       30.04S
TOMAHAWK       NOT AVBL
MEDFORD        LGT RAIN  54  51  92 W12       30.06R
MERRILL        CLOUDY    62  51  65 W14       30.02F
$$

WIZ029-030-035-036-043>047-252100-
CENTRAL WISCONSIN

CITY           SKY/WX    TMP DP  RH WIND       PRES   REMARKS
WAUSAU         CLOUDY    62  52  69 W16       30.01F
MOSINEE        CLOUDY    63  55  77 W12G17    30.04F
MARSHFIELD     PTSUNNY   61  51  70 W14G23    30.04F
STEVENS POINT  CLOUDY    61  51  70 W10G20    30.05S
WAUPACA        PTSUNNY   68  49  50 W12G20    30.03F
WAUTOMA        NOT AVBL
WISC RAPIDS    CLOUDY    63  54  72 NW7G20    30.06F
CAMP DOUGLAS   PTSUNNY   66  54  63 W12G21    30.07F
$$

WIZ011>013-019>022-031-037>040-048>050-252100-
NORTHEAST WISCONSIN

CITY           SKY/WX    TMP DP  RH WIND       PRES   REMARKS
ANTIGO         CLOUDY    60  53  76 W9        30.02S
SHAWANO        CLOUDY    67  52  58 W6        30.00S
OCONTO         CLOUDY    64  54  70 SE6       29.98F
STURGEON BAY   RAIN      59  53  80 W6          N/A
GREEN BAY      PTSUNNY   70  53  54 W17G23    29.99F
MANITOWOC      CLOUDY    64  54  69 W9        30.02R
APPLETON       PTSUNNY   66  46  48 W16       30.01F
CLINTONVILLE   MOSUNNY   68  48  49 W16       30.01S
OSHKOSH        PTSUNNY   67  52  58 W9        30.03F
$$

WIZ032>034-041-042-053>061-252100-
SOUTHWEST WISCONSIN

CITY           SKY/WX    TMP DP  RH WIND       PRES   REMARKS
LA CROSSE      CLOUDY    67  56  67 W14       30.11S
SPARTA         LGT RAIN  58  55  88 W8G23     30.10S
VIROQUA        PTSUNNY   63  53  69 W14G20    30.12F
BOSCOBEL       CLOUDY    65  52  62 W8        30.13F
PRAIRIE DU CHI MOSUNNY   63  48  57 W14       30.14F
PLATTEVILLE    CLOUDY    62  51  67 W12G21    30.15F
$$

WIZ056-057-062-063-064-067-068-252100-
SOUTH CENTRAL WISCONSIN

CITY           SKY/WX    TMP DP  RH WIND       PRES   REMARKS
REEDSBURG      CLOUDY    62  51  67 W13       30.10S
BARABOO/DELLS  PTSUNNY   64  50  61 W13G18    30.09F
LONE ROCK      CLOUDY    63  50  62 W12       30.11F
MINERAL POINT  CLOUDY    61  52  72 W15G22    30.13F
MADISON        PTSUNNY   62  48  60 W10       30.10S
MIDDLETON      CLOUDY    63  50  62 W10       30.11S
WATERTOWN      PTSUNNY   66  50  57 W17G23    30.08S
MONROE         CLOUDY    61  46  59 W18G25    30.12S
JANESVILLE     PTSUNNY   68  48  49 W15G22    30.10S
$$

WIZ051-052-058>065-066-070>072-252100-
SOUTHEAST WISCONSIN

CITY           SKY/WX    TMP DP  RH WIND       PRES   REMARKS
MILWAUKEE      PTSUNNY   72  45  37 W16G25    30.05F
WAUKESHA       PTSUNNY   66  48  52 W15G24    30.08S
MILWAUKEE/TIMM PTSUNNY   66  45  45 W16G24    30.07R
RACINE         PTSUNNY   69  47  45 NW15G23   30.07F
KENOSHA        MOSUNNY   70  49  47 W20G26    30.07F
FOND DU LAC    PTSUNNY   68  49  50 W15       30.04F
SHEBOYGAN      CLOUDY    68  52  56 W15G24    30.02F
WEST BEND      MOSUNNY   66  46  48 W15G22    30.05S
JUNEAU         PTSUNNY   64  49  57 SW13G20   30.08S
$$

LSZ147-162-252100-
LAKE SUPERIOR

STATION/POSITION TIME  TEMP    WIND        PRES    WAVE
                       AIR SEA DIR/SP/G            HT/PER
                 (UTC) (F)     (DEG/KT/KT) (MB)    (FT/S)
W MID LAKE BUOY  1950   42 39   60/  6/  6 1017.2F   1
DEVILS ISLAND    2000   51     330/  3/  4 1017.2R
SAXON HARBOR     1930   55     330/  8/ 12 1016.6R
$$

LMZ867-665-643>646-252100-
LAKE MICHIGAN

STATION/POSITION TIME  TEMP    WIND        PRES    WAVE
                       AIR SEA DIR/SP/G            HT/PER
                 (UTC) (F)     (DEG/KT/KT) (MB)    (FT/S)
CHAMBERS ISLAND  1940   65     140/  4/  7 1014.9S
S GREEN BAY BUOY 2000   60      60/  6/ 10 1015.4
N MID LAKE BUOY  1950   58 58  200/  6/  6 1015.9S   1/ 4
NORTHPORT PIER   1940   63     330/  3/  6 1015.2S
KEWAUNEE LAKESHO 1942   67     130/  8/ 10 1015.2F
SHEBOYGAN LAKESH 2000   66     290/ 17/ 20 1016.4S
PORT WASHINGTON  1930   71     270/  9/ 17 1017.6F
ATWATER BUOY     1909   65 57  270/ 16/ 23 1017.5F
MILWAUKEE LAKESH 1950   67     280/ 14/ 18   N/A
S MID LAKE BUOY  1950   63 62  260/  8/ 10 1017.9F   2/ 4
KENOSHA   LAKESH 2000   68     270/ 11/ 23 1017.6
$$

TC  - TEMPERATURE IN CELSIUS
VSB - VISIBILITY IN STATUTE MILES
WCI - WIND CHILL INDEX
HX  - HEAT INDEX





USA.gov is the U.S. government's official web portal to all federal, state and local government web resources and services.